UAE9LT OMDB-LIMC

Flight info

Callsign UAE9LT
Flight time N/A
Altitude 37000
Route ANVIX7F ANVIX L223 TARDI N629 BOTAM Y855 LAKLU/N0495F360 Q204 NALKI G652 DATBU/N0499F380 G652 TOKRA DCT ALROK DCT BOSOB DCT ITRUX Y511 PMA Z712 WEJ L677 GESON Q777 SENTO/N0490F400 Q777 RASDA DCT OTHON DCT VAXOS DCT RDS UL609 MES DCT FSK DCT DISOR DCT LONTA UL608 DOLEV DCT VRANA DCT BAXON/N0488F410 DCT LOMED/N0363F180 M730 MIVKI T648 MEBUR MEBUR3E
Aircraft A388/J-V/N

Departure

Time 2026-05-06 15:52
Airport Dubai International Airport (OMDB)

Arrival

Time N/A
Airport Milan Malpensa International Airport (LIMC)
Time Latitude Longitude Altitude Speed Heading
2026-05-06 15:13 25.24397 55.37294 26 ft 0 kts 211°
2026-05-06 15:41 25.24405 55.37299 26 ft 4 kts 211°
2026-05-06 15:41 25.24427 55.37314 26 ft 4 kts 211°
2026-05-06 15:41 25.24449 55.37328 24 ft 4 kts 211°
2026-05-06 15:41 25.24469 55.37341 24 ft 4 kts 193°
2026-05-06 15:42 25.24484 55.37338 24 ft 4 kts 115°
2026-05-06 15:42 25.24493 55.37312 25 ft 4 kts 115°
2026-05-06 15:42 25.24497 55.37303 25 ft 0 kts 122°
2026-05-06 15:45 25.24494 55.37309 25 ft 4 kts 122°
2026-05-06 15:45 25.24470 55.37352 26 ft 8 kts 122°
2026-05-06 15:46 25.24433 55.37417 27 ft 11 kts 122°
2026-05-06 15:46 25.24388 55.37498 27 ft 14 kts 122°
2026-05-06 15:46 25.24334 55.37593 27 ft 15 kts 122°
2026-05-06 15:46 25.24283 55.37685 27 ft 14 kts 121°
2026-05-06 15:47 25.24279 55.37775 27 ft 12 kts 47°
2026-05-06 15:47 25.24317 55.37806 28 ft 0 kts 33°
2026-05-06 15:47 25.24323 55.37811 28 ft 2 kts 33°
2026-05-06 15:47 25.24328 55.37814 28 ft 0 kts 33°
2026-05-06 15:48 25.24330 55.37816 28 ft 1 kts 33°
2026-05-06 15:48 25.24350 55.37830 29 ft 5 kts 33°
2026-05-06 15:48 25.24386 55.37857 31 ft 7 kts 35°
2026-05-06 15:49 25.24426 55.37888 34 ft 7 kts 34°
2026-05-06 15:49 25.24486 55.37934 35 ft 13 kts 34°
2026-05-06 15:49 25.24574 55.38000 31 ft 17 kts 34°
2026-05-06 15:49 25.24617 55.38032 30 ft 0 kts 31°
2026-05-06 15:50 25.24634 55.38044 30 ft 8 kts 31°
2026-05-06 15:50 25.24701 55.38089 34 ft 11 kts 32°
2026-05-06 15:51 25.24759 55.38099 35 ft 8 kts 328°
2026-05-06 15:51 25.24808 55.38026 35 ft 15 kts 301°
2026-05-06 15:51 25.24944 55.37778 35 ft 73 kts 301°
2026-05-06 15:51 25.25326 55.37093 35 ft 133 kts 302°
2026-05-06 15:52 25.25880 55.36085 42 ft 169 kts 302°
2026-05-06 15:52 25.26475 55.34971 456 ft 167 kts 303°
2026-05-06 15:52 25.27070 55.33862 784 ft 170 kts 302°
2026-05-06 15:52 25.27713 55.32708 1021 ft 182 kts 303°
2026-05-06 15:53 25.28408 55.31492 1313 ft 190 kts 303°
2026-05-06 15:53 25.29098 55.30240 1661 ft 192 kts 296°
2026-05-06 15:53 25.29287 55.28784 1976 ft 195 kts 258°
2026-05-06 15:53 25.28750 55.27427 2280 ft 196 kts 242°
2026-05-06 15:54 25.28115 55.26055 2469 ft 204 kts 243°
2026-05-06 15:54 25.27505 55.24656 2806 ft 200 kts 244°
2026-05-06 15:54 25.26909 55.23260 3043 ft 202 kts 244°
2026-05-06 15:54 25.26309 55.21844 3258 ft 204 kts 244°
2026-05-06 15:55 25.25706 55.20421 3437 ft 211 kts 244°
2026-05-06 15:55 25.25049 55.18873 3590 ft 232 kts 244°
2026-05-06 15:55 25.24094 55.17405 3975 ft 240 kts 217°
2026-05-06 15:55 25.22587 55.16667 4648 ft 241 kts 188°
2026-05-06 15:56 25.20859 55.16673 4950 ft 259 kts 175°
2026-05-06 15:56 25.19080 55.17245 5221 ft 275 kts 149°
2026-05-06 15:56 25.17697 55.18695 5865 ft 278 kts 124°
2026-05-06 15:56 25.16795 55.20590 6469 ft 279 kts 118°
2026-05-06 15:57 25.15908 55.22499 7109 ft 280 kts 119°
2026-05-06 15:57 25.15001 55.24404 7748 ft 281 kts 119°
2026-05-06 15:57 25.14085 55.26308 8397 ft 282 kts 119°
2026-05-06 15:57 25.13156 55.28236 8918 ft 288 kts 119°
2026-05-06 15:58 25.12215 55.30190 9600 ft 288 kts 119°
2026-05-06 15:58 25.11271 55.32151 10164 ft 291 kts 119°
2026-05-06 15:58 25.10357 55.34157 10705 ft 294 kts 115°
2026-05-06 15:58 25.09518 55.36221 11260 ft 297 kts 114°
2026-05-06 15:59 25.08661 55.38308 11809 ft 301 kts 114°
2026-05-06 15:59 25.07788 55.40427 12305 ft 305 kts 113°
2026-05-06 15:59 25.06908 55.42564 12867 ft 308 kts 112°
2026-05-06 15:59 25.06056 55.44746 13385 ft 312 kts 111°
2026-05-06 16:00 25.05213 55.46965 13879 ft 315 kts 111°
2026-05-06 16:00 25.04366 55.49199 14348 ft 318 kts 111°
2026-05-06 16:00 25.03487 55.51504 14503 ft 334 kts 111°
2026-05-06 16:00 25.02573 55.53884 14626 ft 349 kts 111°
2026-05-06 16:01 25.01500 55.56346 14754 ft 365 kts 118°
2026-05-06 16:01 25.00168 55.58783 14998 ft 375 kts 120°
2026-05-06 16:01 24.98820 55.61257 15456 ft 378 kts 120°
2026-05-06 16:01 24.97468 55.63754 15939 ft 381 kts 119°
2026-05-06 16:02 24.96110 55.66269 16434 ft 383 kts 119°
2026-05-06 16:02 24.94743 55.68800 16910 ft 386 kts 120°
2026-05-06 16:02 24.93261 55.71271 17372 ft 389 kts 125°
2026-05-06 16:02 24.91649 55.73681 17837 ft 391 kts 125°
2026-05-06 16:03 24.90030 55.76113 18236 ft 395 kts 125°
2026-05-06 16:03 24.88405 55.78562 18619 ft 398 kts 125°
2026-05-06 16:03 24.86767 55.81034 19018 ft 400 kts 126°
2026-05-06 16:03 24.85117 55.83521 19360 ft 405 kts 126°
2026-05-06 16:04 24.83449 55.86032 19708 ft 408 kts 126°
2026-05-06 16:04 24.81752 55.88549 20065 ft 410 kts 126°
2026-05-06 16:04 24.80038 55.91072 20471 ft 413 kts 127°
2026-05-06 16:04 24.78269 55.93571 20824 ft 416 kts 131°
2026-05-06 16:05 24.76229 55.95838 21189 ft 418 kts 137°
2026-05-06 16:05 24.74083 55.98013 21546 ft 421 kts 137°
2026-05-06 16:05 24.71930 56.00219 21897 ft 424 kts 137°
2026-05-06 16:05 24.69767 56.02444 22253 ft 427 kts 137°
2026-05-06 16:06 24.67591 56.04684 22592 ft 430 kts 137°
2026-05-06 16:06 24.65401 56.06942 22943 ft 433 kts 137°
2026-05-06 16:06 24.63205 56.09204 23350 ft 434 kts 137°
2026-05-06 16:06 24.60994 56.11481 23645 ft 437 kts 137°
2026-05-06 16:07 24.58771 56.13768 23944 ft 439 kts 137°
2026-05-06 16:07 24.57303 56.15302 24131 ft 441 kts 135°
2026-05-06 16:07 24.54584 56.18694 24521 ft 444 kts 131°
2026-05-06 16:07 24.53252 56.20402 24697 ft 446 kts 131°
2026-05-06 16:08 24.51225 56.22990 24984 ft 448 kts 132°
2026-05-06 16:08 24.49186 56.25586 25271 ft 450 kts 132°
2026-05-06 16:08 24.47134 56.28195 25555 ft 453 kts 132°
2026-05-06 16:08 24.45072 56.30817 25833 ft 455 kts 132°
2026-05-06 16:09 24.42999 56.33452 26096 ft 458 kts 132°
2026-05-06 16:09 24.40914 56.36101 26390 ft 460 kts 132°
2026-05-06 16:09 24.38817 56.38764 26675 ft 463 kts 132°
2026-05-06 16:09 24.36708 56.41441 26991 ft 465 kts 132°
2026-05-06 16:10 24.34588 56.44130 27285 ft 467 kts 132°
2026-05-06 16:10 24.32454 56.46835 27608 ft 470 kts 133°
2026-05-06 16:10 24.30311 56.49555 27935 ft 473 kts 131°
2026-05-06 16:10 24.28313 56.52438 28245 ft 477 kts 127°
2026-05-06 16:11 24.26368 56.55394 28590 ft 480 kts 128°
2026-05-06 16:11 24.24404 56.58363 28945 ft 483 kts 128°
2026-05-06 16:11 24.22421 56.61350 29253 ft 487 kts 128°
2026-05-06 16:11 24.20424 56.64356 29635 ft 489 kts 128°
2026-05-06 16:12 24.18414 56.67379 29978 ft 492 kts 128°
2026-05-06 16:12 24.16392 56.70417 30299 ft 495 kts 128°
2026-05-06 16:12 24.14357 56.73475 30626 ft 498 kts 128°
2026-05-06 16:12 24.12312 56.76546 30945 ft 501 kts 128°
2026-05-06 16:13 24.10252 56.79636 31269 ft 504 kts 128°
2026-05-06 16:13 24.08182 56.82741 31585 ft 507 kts 128°
2026-05-06 16:13 24.06000 56.85700 31847 ft 507 kts 137°
2026-05-06 16:13 24.03336 56.88205 32185 ft 504 kts 148°
2026-05-06 16:14 24.00307 56.90103 32486 ft 501 kts 160°
2026-05-06 16:14 23.97023 56.91337 32810 ft 498 kts 170°
2026-05-06 16:14 23.93633 56.92128 33109 ft 499 kts 173°
2026-05-06 16:14 23.90209 56.92851 33425 ft 502 kts 172°
2026-05-06 16:15 23.86780 56.93635 33754 ft 505 kts 171°
2026-05-06 16:15 23.83337 56.94489 34035 ft 508 kts 171°
2026-05-06 16:15 23.79894 56.95388 34359 ft 509 kts 170°
2026-05-06 16:15 23.76456 56.96306 34797 ft 508 kts 170°
2026-05-06 16:16 23.73032 56.97227 35239 ft 506 kts 169°
2026-05-06 16:16 23.69618 56.98145 35678 ft 504 kts 169°
2026-05-06 16:16 23.66216 56.99058 36129 ft 503 kts 169°
2026-05-06 16:16 23.62831 56.99965 36599 ft 500 kts 169°
2026-05-06 16:17 23.59444 57.00872 36866 ft 503 kts 169°
2026-05-06 16:17 23.56042 57.01780 36882 ft 502 kts 169°
2026-05-06 16:17 23.49270 57.03590 36896 ft 502 kts 169°
2026-05-06 16:18 23.42483 57.05386 36910 ft 501 kts 172°
2026-05-06 16:18 23.35600 57.05922 36920 ft 493 kts 187°
2026-05-06 16:19 23.28940 57.04649 36907 ft 490 kts 195°
2026-05-06 16:19 23.22270 57.03067 36920 ft 491 kts 195°
2026-05-06 16:20 23.15547 57.01490 36912 ft 491 kts 195°
2026-05-06 16:20 23.08865 56.99921 36922 ft 491 kts 195°
2026-05-06 16:21 23.02226 56.98361 36926 ft 491 kts 195°